Time,TemperatureF,DewpointF,PressureIn,WindDirection,WindDirectionDegrees,WindSpeedMPH,WindSpeedGustMPH,Humidity,HourlyPrecipIn,Conditions,Clouds,dailyrainin,SoftwareType,DateUTC
2013-01-16 00:00:00,36.4,30.2,30.22,North,355,4.0,4.0,78,0.00,,,0.14,Wunderground v.1.15,2013-01-16 05:00:00,
2013-01-16 00:02:00,36.3,30.1,30.22,North,355,4.0,4.0,78,0.00,,,0.14,Wunderground v.1.15,2013-01-16 05:02:00,
2013-01-16 00:03:00,36.3,30.4,30.22,North,355,4.0,4.0,79,0.00,,,0.14,Wunderground v.1.15,2013-01-16 05:03:00,
2013-01-16 00:04:00,36.3,30.4,30.22,North,355,3.0,4.0,79,0.00,,,0.14,Wunderground v.1.15,2013-01-16 05:04:00,
2013-01-16 00:14:00,36.3,30.1,30.21,North,355,2.0,2.0,78,0.00,,,0.14,Wunderground v.1.15,2013-01-16 05:14:00,
2013-01-16 00:19:00,36.3,30.1,30.22,North,355,3.0,4.0,78,0.00,,,0.14,Wunderground v.1.15,2013-01-16 05:19:00,
2013-01-16 00:24:00,36.2,30.0,30.22,North,355,5.0,5.0,78,0.00,,,0.14,Wunderground v.1.15,2013-01-16 05:24:00,
2013-01-16 00:29:00,36.2,30.3,30.22,North,355,2.0,5.0,79,0.00,,,0.00,Wunderground v.1.15,2013-01-16 05:29:00,
2013-01-16 00:34:00,36.2,30.3,30.22,North,355,3.0,4.0,79,0.00,,,0.00,Wunderground v.1.15,2013-01-16 05:34:00,
2013-01-16 00:39:00,36.2,30.0,30.22,North,355,4.0,4.0,78,0.00,,,0.00,Wunderground v.1.15,2013-01-16 05:39:00,
2013-01-16 00:44:00,36.2,30.3,30.22,North,355,4.0,4.0,79,0.00,,,0.00,Wunderground v.1.15,2013-01-16 05:44:00,
2013-01-16 00:50:00,36.2,30.6,30.23,NNW,348,3.0,4.0,80,0.00,,,0.00,Wunderground v.1.15,2013-01-16 05:50:00,
2013-01-16 00:55:00,36.2,30.3,30.23,NNW,338,3.0,4.0,79,0.00,,,0.00,Wunderground v.1.15,2013-01-16 05:55:00,
2013-01-16 01:00:00,36.2,29.7,30.23,NNW,338,4.0,4.0,77,0.00,,,0.00,Wunderground v.1.15,2013-01-16 06:00:00,
2013-01-16 01:06:00,36.3,30.1,30.24,NNW,338,4.0,4.0,78,0.00,,,0.00,Wunderground v.1.15,2013-01-16 06:06:00,
2013-01-16 01:11:00,36.4,30.5,30.23,NW,322,3.0,3.0,79,0.00,,,0.00,Wunderground v.1.15,2013-01-16 06:11:00,
2013-01-16 01:16:00,36.3,30.4,30.22,NW,322,3.0,3.0,79,0.00,,,0.00,Wunderground v.1.15,2013-01-16 06:16:00,
2013-01-16 01:21:00,36.3,30.4,30.21,North,11,4.0,4.0,79,0.00,,,0.00,Wunderground v.1.15,2013-01-16 06:21:00,
2013-01-16 01:26:00,36.3,30.1,30.22,North,11,3.0,4.0,78,0.00,,,0.00,Wunderground v.1.15,2013-01-16 06:26:00,
2013-01-16 01:31:00,36.4,30.5,30.22,NNE,19,3.0,4.0,79,0.00,,,0.00,Wunderground v.1.15,2013-01-16 06:31:00,
2013-01-16 01:36:00,36.3,30.4,30.22,NNE,19,4.0,4.0,79,0.00,,,0.00,Wunderground v.1.15,2013-01-16 06:36:00,
2013-01-16 01:41:00,36.3,30.1,30.22,NNE,19,2.0,3.0,78,0.00,,,0.00,Wunderground v.1.15,2013-01-16 06:41:00,
2013-01-16 01:47:00,36.2,30.0,30.22,NNE,19,0.0,3.0,78,0.00,,,0.00,Wunderground v.1.15,2013-01-16 06:47:00,
2013-01-16 01:52:00,36.3,30.1,30.22,NNE,19,2.0,2.0,78,0.00,,,0.00,Wunderground v.1.15,2013-01-16 06:52:00,
2013-01-16 01:57:00,36.3,30.4,30.21,NNE,19,3.0,3.0,79,0.00,,,0.00,Wunderground v.1.15,2013-01-16 06:57:00,
2013-01-16 02:02:00,36.3,30.1,30.21,NNE,19,1.0,2.0,78,0.00,,,0.00,Wunderground v.1.15,2013-01-16 07:02:00,
2013-01-16 02:07:00,36.3,29.8,30.21,NNE,19,2.0,2.0,77,0.00,,,0.00,Wunderground v.1.15,2013-01-16 07:07:00,
2013-01-16 02:12:00,36.2,30.0,30.21,NNE,19,1.0,2.0,78,0.00,,,0.00,Wunderground v.1.15,2013-01-16 07:12:00,
2013-01-16 02:17:00,36.2,30.0,30.21,NNE,19,0.0,2.0,78,0.00,,,0.00,Wunderground v.1.15,2013-01-16 07:17:00,
2013-01-16 02:22:00,36.1,29.6,30.21,NNE,19,0.0,0.0,77,0.00,,,0.00,Wunderground v.1.15,2013-01-16 07:22:00,
2013-01-16 02:27:00,36.1,29.9,30.21,NNE,19,0.0,0.0,78,0.00,,,0.00,Wunderground v.1.15,2013-01-16 07:27:00,
2013-01-16 02:32:00,36.1,30.8,30.21,NNE,19,0.0,0.0,81,0.00,,,0.00,Wunderground v.1.15,2013-01-16 07:32:00,
2013-01-16 02:37:00,36.1,30.8,30.21,NNE,19,0.0,0.0,81,0.00,,,0.00,Wunderground v.1.15,2013-01-16 07:37:00,
2013-01-16 02:42:00,36.0,30.4,30.20,NNE,19,0.0,0.0,80,0.00,,,0.00,Wunderground v.1.15,2013-01-16 07:42:00,
2013-01-16 02:47:00,35.9,30.3,30.20,NNE,19,0.0,1.0,80,0.00,,,0.00,Wunderground v.1.15,2013-01-16 07:47:00,
2013-01-16 02:52:00,35.7,30.4,30.20,NNE,19,2.0,2.0,81,0.00,,,0.00,Wunderground v.1.15,2013-01-16 07:52:00,
2013-01-16 02:57:00,35.6,30.6,30.20,NNE,19,2.0,3.0,82,0.00,,,0.00,Wunderground v.1.15,2013-01-16 07:57:00,
2013-01-16 03:02:00,35.5,30.8,30.19,NNE,19,3.0,4.0,83,0.00,,,0.00,Wunderground v.1.15,2013-01-16 08:02:00,
2013-01-16 03:07:00,35.2,30.9,30.19,NNE,19,2.0,4.0,84,0.00,,,0.00,Wunderground v.1.15,2013-01-16 08:07:00,
2013-01-16 03:12:00,34.9,30.8,30.19,NNE,19,1.0,2.0,85,0.00,,,0.00,Wunderground v.1.15,2013-01-16 08:12:00,
2013-01-16 03:17:00,34.6,30.8,30.18,NNE,19,2.0,2.0,86,0.00,,,0.00,Wunderground v.1.15,2013-01-16 08:17:00,
2013-01-16 03:22:00,34.4,31.2,30.18,NNE,19,2.0,3.0,88,0.00,,,0.00,Wunderground v.1.15,2013-01-16 08:22:00,
2013-01-16 03:27:00,34.2,31.0,30.18,NNE,19,0.0,3.0,88,0.00,,,0.00,Wunderground v.1.15,2013-01-16 08:27:00,
2013-01-16 03:32:00,33.9,31.0,30.17,NNE,19,1.0,1.0,89,0.00,,,0.00,Wunderground v.1.15,2013-01-16 08:32:00,
2013-01-16 03:37:00,33.7,31.1,30.17,NNE,19,3.0,3.0,90,0.00,,,0.00,Wunderground v.1.15,2013-01-16 08:37:00,
2013-01-16 03:42:00,33.8,31.5,30.17,NNW,328,4.0,4.0,91,0.00,,,0.00,Wunderground v.1.15,2013-01-16 08:42:00,
2013-01-16 03:47:00,33.9,31.8,30.17,NNW,334,4.0,5.0,92,0.00,,,0.01,Wunderground v.1.15,2013-01-16 08:47:00,
2013-01-16 03:52:00,34.0,31.6,30.16,NNW,341,4.0,5.0,91,0.00,,,0.01,Wunderground v.1.15,2013-01-16 08:52:00,
2013-01-16 03:57:00,33.9,31.8,30.14,NNW,346,4.0,5.0,92,0.04,,,0.02,Wunderground v.1.15,2013-01-16 08:57:00,
2013-01-16 04:02:00,33.8,31.7,30.14,NNW,346,3.0,5.0,92,0.04,,,0.02,Wunderground v.1.15,2013-01-16 09:02:00,
2013-01-16 04:07:00,33.6,31.8,30.13,NNW,346,3.0,5.0,93,0.04,,,0.02,Wunderground v.1.15,2013-01-16 09:07:00,
2013-01-16 04:12:00,33.6,31.8,30.14,NNE,15,4.0,5.0,93,0.04,,,0.02,Wunderground v.1.15,2013-01-16 09:12:00,
2013-01-16 04:17:00,33.5,31.7,30.13,North,9,4.0,5.0,93,0.00,,,0.02,Wunderground v.1.15,2013-01-16 09:17:00,
2013-01-16 04:22:00,33.5,32.0,30.14,North,9,4.0,5.0,94,0.00,,,0.02,Wunderground v.1.15,2013-01-16 09:22:00,
2013-01-16 04:27:00,33.4,31.9,30.14,North,351,5.0,5.0,94,0.00,,,0.02,Wunderground v.1.15,2013-01-16 09:27:00,
2013-01-16 04:32:00,33.4,31.9,30.15,North,351,3.0,4.0,94,0.00,,,0.03,Wunderground v.1.15,2013-01-16 09:32:00,
2013-01-16 04:37:00,33.4,31.9,30.15,NNW,348,2.0,4.0,94,0.00,,,0.03,Wunderground v.1.15,2013-01-16 09:37:00,
2013-01-16 04:42:00,33.3,31.8,30.15,NNW,348,2.0,3.0,94,0.00,,,0.03,Wunderground v.1.15,2013-01-16 09:42:00,
2013-01-16 04:47:00,33.2,31.7,30.15,NNW,348,2.0,3.0,94,0.00,,,0.03,Wunderground v.1.15,2013-01-16 09:47:00,
2013-01-16 04:52:00,33.1,31.6,30.14,NNW,348,3.0,3.0,94,0.00,,,0.03,Wunderground v.1.15,2013-01-16 09:52:00,
2013-01-16 04:58:00,32.9,31.4,30.14,NNW,348,3.0,4.0,94,0.00,,,0.03,Wunderground v.1.15,2013-01-16 09:58:00,
2013-01-16 05:03:00,32.9,31.4,30.14,NNW,348,3.0,3.0,94,0.00,,,0.03,Wunderground v.1.15,2013-01-16 10:03:00,
2013-01-16 05:08:00,32.8,31.5,30.14,NNW,348,2.0,3.0,95,0.00,,,0.03,Wunderground v.1.15,2013-01-16 10:08:00,
2013-01-16 05:13:00,32.8,31.5,30.14,NNW,348,2.0,3.0,95,0.00,,,0.03,Wunderground v.1.15,2013-01-16 10:13:00,
2013-01-16 05:18:00,32.8,31.5,30.14,NNW,348,2.0,4.0,95,0.00,,,0.03,Wunderground v.1.15,2013-01-16 10:18:00,
2013-01-16 05:23:00,32.8,31.5,30.14,NNW,348,2.0,3.0,95,0.00,,,0.03,Wunderground v.1.15,2013-01-16 10:23:00,
2013-01-16 05:28:00,32.7,31.4,30.14,NNW,348,2.0,3.0,95,0.00,,,0.03,Wunderground v.1.15,2013-01-16 10:28:00,
2013-01-16 05:33:00,32.6,31.3,30.14,NNW,348,0.0,2.0,95,0.00,,,0.03,Wunderground v.1.15,2013-01-16 10:33:00,
2013-01-16 05:38:00,32.6,31.3,30.14,NNW,348,0.0,2.0,95,0.00,,,0.03,Wunderground v.1.15,2013-01-16 10:38:00,
2013-01-16 05:43:00,32.6,31.3,30.13,NNW,348,0.0,0.0,95,0.00,,,0.03,Wunderground v.1.15,2013-01-16 10:43:00,
2013-01-16 05:48:00,32.6,31.3,30.13,NNW,348,0.0,0.0,95,0.00,,,0.03,Wunderground v.1.15,2013-01-16 10:48:00,
2013-01-16 05:53:00,32.6,31.3,30.11,NE,40,2.0,3.0,95,0.00,,,0.03,Wunderground v.1.15,2013-01-16 10:53:00,
2013-01-16 05:58:00,32.6,31.3,30.11,NE,40,2.0,3.0,95,0.00,,,0.03,Wunderground v.1.15,2013-01-16 10:58:00,
2013-01-16 06:03:00,32.7,31.7,30.10,NE,41,2.0,3.0,96,0.00,,,0.03,Wunderground v.1.15,2013-01-16 11:03:00,
2013-01-16 06:08:00,32.8,31.8,30.10,NE,51,3.0,4.0,96,0.00,,,0.03,Wunderground v.1.15,2013-01-16 11:08:00,
2013-01-16 06:14:00,32.8,31.8,30.10,NE,51,3.0,4.0,96,0.00,,,0.03,Wunderground v.1.15,2013-01-16 11:14:00,
2013-01-16 06:19:00,32.8,31.8,30.10,NE,40,3.0,4.0,96,0.00,,,0.04,Wunderground v.1.15,2013-01-16 11:19:00,
2013-01-16 06:24:00,32.9,31.9,30.09,NE,54,3.0,4.0,96,0.00,,,0.04,Wunderground v.1.15,2013-01-16 11:24:00,
2013-01-16 06:29:00,32.9,31.9,30.10,NE,55,3.0,4.0,96,0.00,,,0.04,Wunderground v.1.15,2013-01-16 11:29:00,
2013-01-16 06:34:00,33.0,32.0,30.10,NE,55,3.0,4.0,96,0.00,,,0.04,Wunderground v.1.15,2013-01-16 11:34:00,
2013-01-16 06:39:00,32.9,31.9,30.09,NE,55,3.0,4.0,96,0.00,,,0.04,Wunderground v.1.15,2013-01-16 11:39:00,
2013-01-16 06:44:00,32.9,31.9,30.09,NE,55,2.0,3.0,96,0.00,,,0.04,Wunderground v.1.15,2013-01-16 11:44:00,
2013-01-16 06:49:00,32.9,31.9,30.09,NE,55,3.0,3.0,96,0.00,,,0.04,Wunderground v.1.15,2013-01-16 11:49:00,
2013-01-16 06:54:00,32.8,31.8,30.09,NE,55,1.0,3.0,96,0.00,,,0.04,Wunderground v.1.15,2013-01-16 11:54:00,
2013-01-16 06:59:00,32.8,31.8,30.09,NE,55,1.0,3.0,96,0.00,,,0.04,Wunderground v.1.15,2013-01-16 11:59:00,
2013-01-16 07:04:00,32.7,31.7,30.09,NE,55,0.0,2.0,96,0.00,,,0.04,Wunderground v.1.15,2013-01-16 12:04:00,
2013-01-16 07:09:00,32.6,31.6,30.09,NE,55,0.0,2.0,96,0.00,,,0.04,Wunderground v.1.15,2013-01-16 12:09:00,
2013-01-16 07:14:00,32.5,31.5,30.09,NE,55,0.0,1.0,96,0.00,,,0.04,Wunderground v.1.15,2013-01-16 12:14:00,
2013-01-16 07:19:00,32.4,31.4,30.09,NE,54,0.0,1.0,96,0.00,,,0.04,Wunderground v.1.15,2013-01-16 12:19:00,
2013-01-16 07:24:00,32.3,31.3,30.10,NE,54,0.0,0.0,96,0.00,,,0.05,Wunderground v.1.15,2013-01-16 12:24:00,
2013-01-16 07:29:00,32.2,31.2,30.09,NE,55,0.0,0.0,96,0.00,,,0.05,Wunderground v.1.15,2013-01-16 12:29:00,
2013-01-16 07:34:00,32.1,31.1,30.09,NE,55,0.0,0.0,96,0.00,,,0.05,Wunderground v.1.15,2013-01-16 12:34:00,
2013-01-16 07:39:00,32.0,31.0,30.09,NE,55,0.0,0.0,96,0.00,,,0.05,Wunderground v.1.15,2013-01-16 12:39:00,
2013-01-16 07:44:00,32.0,31.0,30.08,NE,55,0.0,0.0,96,0.00,,,0.05,Wunderground v.1.15,2013-01-16 12:44:00,
2013-01-16 07:49:00,31.9,30.9,30.09,NE,55,0.0,0.0,96,0.00,,,0.05,Wunderground v.1.15,2013-01-16 12:49:00,
2013-01-16 07:54:00,31.9,30.9,30.09,NE,55,0.0,0.0,96,0.00,,,0.05,Wunderground v.1.15,2013-01-16 12:54:00,
2013-01-16 07:59:00,31.9,30.9,30.09,NE,55,0.0,0.0,96,0.00,,,0.06,Wunderground v.1.15,2013-01-16 12:59:00,
2013-01-16 08:04:00,31.9,30.9,30.09,NE,55,0.0,0.0,96,0.00,,,0.06,Wunderground v.1.15,2013-01-16 13:04:00,
2013-01-16 08:09:00,31.9,30.9,30.09,NE,55,0.0,0.0,96,0.00,,,0.06,Wunderground v.1.15,2013-01-16 13:09:00,
2013-01-16 08:15:00,31.9,30.9,30.09,NE,55,0.0,0.0,96,0.00,,,0.06,Wunderground v.1.15,2013-01-16 13:15:00,
2013-01-16 08:20:00,32.0,31.0,30.09,NE,54,2.0,2.0,96,0.00,,,0.06,Wunderground v.1.15,2013-01-16 13:20:00,
2013-01-16 08:25:00,32.0,31.0,30.08,North,355,1.0,2.0,96,0.00,,,0.06,Wunderground v.1.15,2013-01-16 13:25:00,
2013-01-16 08:30:00,32.2,31.2,30.08,North,355,2.0,2.0,96,0.00,,,0.06,Wunderground v.1.15,2013-01-16 13:30:00,
2013-01-16 08:35:00,32.3,31.3,30.08,North,5,3.0,3.0,96,0.00,,,0.06,Wunderground v.1.15,2013-01-16 13:35:00,
2013-01-16 08:40:00,32.5,31.5,30.08,North,5,3.0,3.0,96,0.00,,,0.06,Wunderground v.1.15,2013-01-16 13:40:00,
2013-01-16 08:45:00,32.6,31.6,30.08,North,5,3.0,4.0,96,0.00,,,0.06,Wunderground v.1.15,2013-01-16 13:45:00,
2013-01-16 08:50:00,32.7,31.7,30.08,North,355,3.0,4.0,96,0.00,,,0.06,Wunderground v.1.15,2013-01-16 13:50:00,
2013-01-16 08:55:00,32.8,31.8,30.08,North,350,4.0,4.0,96,0.00,,,0.06,Wunderground v.1.15,2013-01-16 13:55:00,
2013-01-16 09:00:00,32.9,31.9,30.07,North,350,2.0,3.0,96,0.00,,,0.07,Wunderground v.1.15,2013-01-16 14:00:00,
2013-01-16 09:05:00,32.9,31.9,30.07,North,350,2.0,4.0,96,0.00,,,0.07,Wunderground v.1.15,2013-01-16 14:05:00,
2013-01-16 09:10:00,33.0,32.0,30.07,North,350,2.0,2.0,96,0.04,,,0.08,Wunderground v.1.15,2013-01-16 14:10:00,
2013-01-16 09:15:00,33.0,32.0,30.06,NE,34,3.0,4.0,96,0.04,,,0.08,Wunderground v.1.15,2013-01-16 14:15:00,
2013-01-16 09:20:00,33.0,32.0,30.05,NE,34,3.0,3.0,96,0.04,,,0.08,Wunderground v.1.15,2013-01-16 14:20:00,
2013-01-16 09:25:00,33.0,32.0,30.04,NE,56,4.0,4.0,96,0.04,,,0.08,Wunderground v.1.15,2013-01-16 14:25:00,
2013-01-16 09:30:00,33.0,32.0,30.02,NE,55,3.0,3.0,96,0.00,,,0.08,Wunderground v.1.15,2013-01-16 14:30:00,
2013-01-16 09:35:00,33.0,32.0,30.02,NE,55,2.0,4.0,96,0.00,,,0.08,Wunderground v.1.15,2013-01-16 14:35:00,
2013-01-16 09:40:00,33.0,32.0,30.01,NE,55,2.0,4.0,96,0.00,,,0.08,Wunderground v.1.15,2013-01-16 14:40:00,
2013-01-16 09:45:00,33.0,32.0,30.01,NE,51,3.0,5.0,96,0.00,,,0.09,Wunderground v.1.15,2013-01-16 14:45:00,
2013-01-16 09:50:00,33.0,32.0,30.01,NE,51,1.0,3.0,96,0.00,,,0.09,Wunderground v.1.15,2013-01-16 14:50:00,
2013-01-16 09:55:00,33.1,32.1,29.99,NE,51,3.0,4.0,96,0.00,,,0.09,Wunderground v.1.15,2013-01-16 14:55:00,
2013-01-16 10:00:00,33.1,32.1,29.98,NE,52,3.0,4.0,96,0.00,,,0.09,Wunderground v.1.15,2013-01-16 15:00:00,
2013-01-16 10:05:00,33.2,32.2,29.97,NE,50,3.0,4.0,96,0.00,,,0.10,Wunderground v.1.15,2013-01-16 15:05:00,
2013-01-16 10:10:00,33.2,32.2,29.97,ENE,68,2.0,4.0,96,0.00,,,0.10,Wunderground v.1.15,2013-01-16 15:10:00,
2013-01-16 10:16:00,33.2,32.2,29.97,NE,56,3.0,5.0,96,0.00,,,0.10,Wunderground v.1.15,2013-01-16 15:16:00,
2013-01-16 10:21:00,33.3,32.3,29.97,NE,53,2.0,4.0,96,0.00,,,0.10,Wunderground v.1.15,2013-01-16 15:21:00,
2013-01-16 10:26:00,33.3,32.3,29.97,NNE,31,3.0,4.0,96,0.00,,,0.10,Wunderground v.1.15,2013-01-16 15:26:00,
2013-01-16 10:31:00,33.3,32.3,29.96,NE,49,4.0,4.0,96,0.00,,,0.10,Wunderground v.1.15,2013-01-16 15:31:00,
2013-01-16 10:36:00,33.4,32.4,29.96,NNE,24,4.0,6.0,96,0.00,,,0.11,Wunderground v.1.15,2013-01-16 15:36:00,
2013-01-16 10:41:00,33.4,32.4,29.95,NE,35,3.0,4.0,96,0.00,,,0.11,Wunderground v.1.15,2013-01-16 15:41:00,
2013-01-16 10:46:00,33.4,32.4,29.94,NE,49,4.0,4.0,96,0.00,,,0.11,Wunderground v.1.15,2013-01-16 15:46:00,
2013-01-16 10:51:00,33.4,32.4,29.93,NE,49,2.0,3.0,96,0.04,,,0.12,Wunderground v.1.15,2013-01-16 15:51:00,
2013-01-16 10:56:00,33.4,32.4,29.93,East,83,3.0,5.0,96,0.04,,,0.12,Wunderground v.1.15,2013-01-16 15:56:00,
2013-01-16 11:01:00,33.4,32.4,29.93,ENE,64,2.0,4.0,96,0.04,,,0.12,Wunderground v.1.15,2013-01-16 16:01:00,
2013-01-16 11:06:00,33.4,32.4,29.92,ENE,64,2.0,4.0,96,0.04,,,0.13,Wunderground v.1.15,2013-01-16 16:06:00,
2013-01-16 11:11:00,33.5,32.5,29.92,ENE,64,1.0,2.0,96,0.04,,,0.13,Wunderground v.1.15,2013-01-16 16:11:00,
2013-01-16 11:16:00,33.5,32.5,29.91,ENE,64,1.0,3.0,96,0.06,,,0.14,Wunderground v.1.15,2013-01-16 16:16:00,
2013-01-16 11:21:00,33.5,32.5,29.90,ENE,64,2.0,2.0,96,0.06,,,0.14,Wunderground v.1.15,2013-01-16 16:21:00,
2013-01-16 11:26:00,33.6,32.6,29.90,ENE,64,1.0,2.0,96,0.05,,,0.14,Wunderground v.1.15,2013-01-16 16:26:00,
2013-01-16 11:31:00,33.6,32.6,29.91,ENE,64,2.0,3.0,96,0.00,,,0.14,Wunderground v.1.15,2013-01-16 16:31:00,
2013-01-16 11:36:00,33.6,32.8,29.91,North,355,3.0,4.0,97,0.00,,,0.15,Wunderground v.1.15,2013-01-16 16:36:00,
2013-01-16 11:41:00,33.6,32.8,29.91,NW,319,4.0,4.0,97,0.00,,,0.15,Wunderground v.1.15,2013-01-16 16:41:00,
2013-01-16 11:46:00,33.6,32.6,29.91,NW,313,1.0,5.0,96,0.00,,,0.15,Wunderground v.1.15,2013-01-16 16:46:00,
2013-01-16 11:51:00,33.6,32.6,29.91,NW,309,4.0,4.0,96,0.04,,,0.16,Wunderground v.1.15,2013-01-16 16:51:00,
2013-01-16 11:56:00,33.5,32.5,29.91,NW,321,2.0,7.0,96,0.04,,,0.16,Wunderground v.1.15,2013-01-16 16:56:00,
2013-01-16 12:01:00,33.5,32.5,29.91,WNW,303,1.0,4.0,96,0.04,,,0.16,Wunderground v.1.15,2013-01-16 17:01:00,
2013-01-16 12:06:00,33.4,32.4,29.91,NW,304,4.0,6.0,96,0.00,,,0.16,Wunderground v.1.15,2013-01-16 17:06:00,
2013-01-16 12:11:00,33.3,32.3,29.90,NW,306,2.0,4.0,96,0.00,,,0.17,Wunderground v.1.15,2013-01-16 17:11:00,
2013-01-16 12:17:00,33.3,32.3,29.90,NW,306,3.0,5.0,96,0.00,,,0.17,Wunderground v.1.15,2013-01-16 17:17:00,
2013-01-16 12:22:00,33.3,32.3,29.90,NW,325,1.0,5.0,96,0.06,,,0.18,Wunderground v.1.15,2013-01-16 17:22:00,
2013-01-16 12:27:00,33.4,32.4,29.90,NNW,327,4.0,5.0,96,0.06,,,0.18,Wunderground v.1.15,2013-01-16 17:27:00,
2013-01-16 12:32:00,33.4,32.4,29.90,NNW,328,2.0,5.0,96,0.04,,,0.18,Wunderground v.1.15,2013-01-16 17:32:00,
2013-01-16 12:37:00,33.4,32.4,29.90,NW,319,5.0,5.0,96,0.00,,,0.18,Wunderground v.1.15,2013-01-16 17:37:00,
2013-01-16 12:42:00,33.4,32.4,29.90,NNW,327,4.0,4.0,96,0.00,,,0.19,Wunderground v.1.15,2013-01-16 17:42:00,
2013-01-16 12:47:00,33.4,32.4,29.91,NW,325,3.0,6.0,96,0.00,,,0.19,Wunderground v.1.15,2013-01-16 17:47:00,
2013-01-16 12:52:00,33.5,32.5,29.91,NW,325,5.0,5.0,96,0.04,,,0.20,Wunderground v.1.15,2013-01-16 17:52:00,
2013-01-16 12:57:00,33.5,32.5,29.90,NW,324,3.0,5.0,96,0.04,,,0.20,Wunderground v.1.15,2013-01-16 17:57:00,
2013-01-16 13:02:00,33.5,32.5,29.89,NW,325,4.0,5.0,96,0.04,,,0.20,Wunderground v.1.15,2013-01-16 18:02:00,
2013-01-16 13:07:00,33.5,32.5,29.89,NW,323,4.0,5.0,96,0.04,,,0.20,Wunderground v.1.15,2013-01-16 18:07:00,
2013-01-16 13:12:00,33.5,32.5,29.89,NW,321,0.0,3.0,96,0.00,,,0.21,Wunderground v.1.15,2013-01-16 18:12:00,
2013-01-16 13:17:00,33.5,32.5,29.90,NW,317,1.0,4.0,96,0.00,,,0.21,Wunderground v.1.15,2013-01-16 18:17:00,
2013-01-16 13:22:00,33.5,32.5,29.89,NW,311,3.0,5.0,96,0.00,,,0.21,Wunderground v.1.15,2013-01-16 18:22:00,
2013-01-16 13:27:00,33.5,32.5,29.89,WNW,298,2.0,5.0,96,0.05,,,0.22,Wunderground v.1.15,2013-01-16 18:27:00,
2013-01-16 13:32:00,33.5,32.5,29.89,NW,314,0.0,4.0,96,0.05,,,0.22,Wunderground v.1.15,2013-01-16 18:32:00,
2013-01-16 13:37:00,33.5,32.5,29.89,NW,314,3.0,4.0,96,0.04,,,0.22,Wunderground v.1.15,2013-01-16 18:37:00,
2013-01-16 13:42:00,33.5,32.5,29.88,NW,315,1.0,4.0,96,0.00,,,0.23,Wunderground v.1.15,2013-01-16 18:42:00,
2013-01-16 13:47:00,33.6,32.8,29.87,NW,315,1.0,4.0,97,0.00,,,0.23,Wunderground v.1.15,2013-01-16 18:47:00,
2013-01-16 13:52:00,33.6,32.8,29.86,NW,315,0.0,1.0,97,0.00,,,0.23,Wunderground v.1.15,2013-01-16 18:52:00,
2013-01-16 13:57:00,33.6,32.8,29.85,NW,315,0.0,2.0,97,0.00,,,0.23,Wunderground v.1.15,2013-01-16 18:57:00,
2013-01-16 14:02:00,33.7,32.9,29.85,NW,315,1.0,1.0,97,0.04,,,0.24,Wunderground v.1.15,2013-01-16 19:02:00,
2013-01-16 14:07:00,33.8,33.0,29.84,NW,315,1.0,2.0,97,0.04,,,0.24,Wunderground v.1.15,2013-01-16 19:07:00,
2013-01-16 14:12:00,33.9,33.1,29.83,NW,315,2.0,2.0,97,0.04,,,0.24,Wunderground v.1.15,2013-01-16 19:12:00,
2013-01-16 14:17:00,33.9,33.1,29.81,ENE,75,2.0,4.0,97,0.00,,,0.24,Wunderground v.1.15,2013-01-16 19:17:00,
2013-01-16 14:22:00,33.9,33.1,29.79,East,90,3.0,5.0,97,0.00,,,0.24,Wunderground v.1.15,2013-01-16 19:22:00,
2013-01-16 14:27:00,33.9,33.1,29.78,East,90,0.0,5.0,97,0.00,,,0.24,Wunderground v.1.15,2013-01-16 19:27:00,
2013-01-16 14:32:00,33.9,33.1,29.77,East,90,2.0,3.0,97,0.00,,,0.25,Wunderground v.1.15,2013-01-16 19:32:00,
2013-01-16 14:37:00,33.9,33.1,29.77,ENE,71,1.0,3.0,97,0.00,,,0.25,Wunderground v.1.15,2013-01-16 19:37:00,
2013-01-16 14:42:00,33.9,33.1,29.79,NNE,26,3.0,3.0,97,0.00,,,0.25,Wunderground v.1.15,2013-01-16 19:42:00,
2013-01-16 14:47:00,34.1,33.3,29.80,NNW,332,7.0,8.0,97,0.00,,,0.25,Wunderground v.1.15,2013-01-16 19:47:00,
2013-01-16 14:52:00,34.2,33.4,29.80,NNW,341,7.0,8.0,97,0.00,,,0.25,Wunderground v.1.15,2013-01-16 19:52:00,
2013-01-16 14:57:00,34.1,33.3,29.80,North,350,7.0,9.0,97,0.00,,,0.26,Wunderground v.1.15,2013-01-16 19:57:00,
2013-01-16 15:02:00,34.0,33.2,29.80,NW,324,4.0,7.0,97,0.00,,,0.26,Wunderground v.1.15,2013-01-16 20:02:00,
2013-01-16 15:07:00,34.0,33.2,29.80,NNW,331,3.0,7.0,97,0.00,,,0.26,Wunderground v.1.15,2013-01-16 20:07:00,
2013-01-16 15:12:00,33.9,33.1,29.81,NW,313,4.0,7.0,97,0.00,,,0.26,Wunderground v.1.15,2013-01-16 20:12:00,
2013-01-16 15:17:00,33.9,33.1,29.82,WNW,302,6.0,9.0,97,0.00,,,0.26,Wunderground v.1.15,2013-01-16 20:17:00,
2013-01-16 15:22:00,33.9,33.1,29.82,NW,311,5.0,10.0,97,0.00,,,0.26,Wunderground v.1.15,2013-01-16 20:22:00,
2013-01-16 15:27:00,33.9,33.1,29.81,NW,311,6.0,10.0,97,0.00,,,0.27,Wunderground v.1.15,2013-01-16 20:27:00,
2013-01-16 15:33:00,33.9,33.1,29.82,NW,323,5.0,8.0,97,0.00,,,0.27,Wunderground v.1.15,2013-01-16 20:33:00,
2013-01-16 15:38:00,33.8,33.0,29.82,NNW,332,7.0,8.0,97,0.00,,,0.27,Wunderground v.1.15,2013-01-16 20:38:00,
2013-01-16 15:43:00,33.8,33.0,29.83,NW,313,3.0,6.0,97,0.00,,,0.27,Wunderground v.1.15,2013-01-16 20:43:00,
2013-01-16 15:48:00,33.8,33.0,29.83,NW,317,4.0,8.0,97,0.00,,,0.28,Wunderground v.1.15,2013-01-16 20:48:00,
2013-01-16 15:53:00,33.7,32.9,29.83,NE,44,3.0,8.0,97,0.00,,,0.28,Wunderground v.1.15,2013-01-16 20:53:00,
2013-01-16 15:58:00,33.7,32.9,29.83,WNW,294,1.0,8.0,97,0.00,,,0.28,Wunderground v.1.15,2013-01-16 20:58:00,
2013-01-16 16:03:00,33.7,32.9,29.82,WNW,296,3.0,6.0,97,0.00,,,0.28,Wunderground v.1.15,2013-01-16 21:03:00,
2013-01-16 16:08:00,33.7,32.9,29.82,NW,321,3.0,6.0,97,0.00,,,0.28,Wunderground v.1.15,2013-01-16 21:08:00,
2013-01-16 16:13:00,33.7,32.9,29.82,NW,319,0.0,3.0,97,0.00,,,0.28,Wunderground v.1.15,2013-01-16 21:13:00,
2013-01-16 16:18:00,33.7,32.9,29.82,NNW,340,4.0,4.0,97,0.00,,,0.28,Wunderground v.1.15,2013-01-16 21:18:00,
2013-01-16 16:23:00,33.8,33.0,29.83,NW,326,3.0,6.0,97,0.00,,,0.28,Wunderground v.1.15,2013-01-16 21:23:00,
2013-01-16 16:28:00,33.8,33.0,29.83,NNW,335,5.0,6.0,97,0.00,,,0.28,Wunderground v.1.15,2013-01-16 21:28:00,
2013-01-16 16:33:00,33.8,33.0,29.84,NW,321,5.0,5.0,97,0.00,,,0.29,Wunderground v.1.15,2013-01-16 21:33:00,
2013-01-16 16:38:00,33.8,33.0,29.85,NW,304,4.0,8.0,97,0.00,,,0.29,Wunderground v.1.15,2013-01-16 21:38:00,
2013-01-16 16:43:00,33.7,32.9,29.85,West,275,3.0,6.0,97,0.00,,,0.29,Wunderground v.1.15,2013-01-16 21:43:00,
2013-01-16 16:48:00,33.7,32.9,29.85,NW,304,5.0,6.0,97,0.00,,,0.29,Wunderground v.1.15,2013-01-16 21:48:00,
2013-01-16 16:53:00,33.6,32.8,29.85,NNW,328,6.0,6.0,97,0.00,,,0.29,Wunderground v.1.15,2013-01-16 21:53:00,
2013-01-16 16:58:00,33.5,32.7,29.84,WNW,296,3.0,6.0,97,0.00,,,0.29,Wunderground v.1.15,2013-01-16 21:58:00,
2013-01-16 17:03:00,33.4,32.6,29.84,NNW,333,5.0,5.0,97,0.00,,,0.29,Wunderground v.1.15,2013-01-16 22:03:00,
2013-01-16 17:08:00,33.5,32.7,29.84,NNW,332,2.0,5.0,97,0.00,,,0.30,Wunderground v.1.15,2013-01-16 22:08:00,
2013-01-16 17:13:00,33.4,32.6,29.85,WNW,298,4.0,4.0,97,0.00,,,0.30,Wunderground v.1.15,2013-01-16 22:13:00,
2013-01-16 17:18:00,33.4,32.6,29.84,NW,325,0.0,4.0,97,0.00,,,0.30,Wunderground v.1.15,2013-01-16 22:18:00,
2013-01-16 17:23:00,33.3,32.5,29.85,NW,325,0.0,1.0,97,0.00,,,0.30,Wunderground v.1.15,2013-01-16 22:23:00,
2013-01-16 17:28:00,33.3,32.5,29.84,NW,325,0.0,1.0,97,0.00,,,0.30,Wunderground v.1.15,2013-01-16 22:28:00,
2013-01-16 17:34:00,33.2,32.4,29.84,NW,325,0.0,0.0,97,0.00,,,0.30,Wunderground v.1.15,2013-01-16 22:34:00,
2013-01-16 17:39:00,33.2,32.4,29.84,NW,325,1.0,1.0,97,0.00,,,0.30,Wunderground v.1.15,2013-01-16 22:39:00,
2013-01-16 17:44:00,33.2,32.4,29.84,NW,325,2.0,3.0,97,0.00,,,0.30,Wunderground v.1.15,2013-01-16 22:44:00,
2013-01-16 17:49:00,33.2,32.4,29.85,NW,324,1.0,4.0,97,0.00,,,0.30,Wunderground v.1.15,2013-01-16 22:49:00,
2013-01-16 17:54:00,33.2,32.4,29.85,NW,317,0.0,3.0,97,0.00,,,0.30,Wunderground v.1.15,2013-01-16 22:54:00,
2013-01-16 17:59:00,33.1,32.3,29.84,NW,317,2.0,3.0,97,0.00,,,0.30,Wunderground v.1.15,2013-01-16 22:59:00,
2013-01-16 18:04:00,33.1,32.3,29.84,NW,317,2.0,2.0,97,0.00,,,0.30,Wunderground v.1.15,2013-01-16 23:04:00,
2013-01-16 18:09:00,33.1,32.3,29.85,West,273,0.0,3.0,97,0.00,,,0.30,Wunderground v.1.15,2013-01-16 23:09:00,
2013-01-16 18:14:00,33.0,32.2,29.85,NW,323,0.0,3.0,97,0.00,,,0.30,Wunderground v.1.15,2013-01-16 23:14:00,
2013-01-16 18:19:00,33.0,32.2,29.85,NW,309,1.0,3.0,97,0.00,,,0.30,Wunderground v.1.15,2013-01-16 23:19:00,
2013-01-16 18:24:00,33.0,32.2,29.85,NW,309,0.0,3.0,97,0.00,,,0.31,Wunderground v.1.15,2013-01-16 23:24:00,
2013-01-16 18:29:00,33.0,32.2,29.85,NNW,334,0.0,4.0,97,0.00,,,0.31,Wunderground v.1.15,2013-01-16 23:29:00,
2013-01-16 18:34:00,33.0,32.2,29.84,NNW,328,1.0,4.0,97,0.00,,,0.31,Wunderground v.1.15,2013-01-16 23:34:00,
2013-01-16 18:39:00,32.9,32.1,29.84,NNW,328,0.0,4.0,97,0.00,,,0.31,Wunderground v.1.15,2013-01-16 23:39:00,
2013-01-16 18:44:00,32.9,32.1,29.84,NNW,328,2.0,2.0,97,0.00,,,0.31,Wunderground v.1.15,2013-01-16 23:44:00,
2013-01-16 18:49:00,32.9,32.1,29.85,NW,321,0.0,3.0,97,0.00,,,0.31,Wunderground v.1.15,2013-01-16 23:49:00,
2013-01-16 18:54:00,32.9,32.1,29.86,NW,321,1.0,3.0,97,0.00,,,0.31,Wunderground v.1.15,2013-01-16 23:54:00,
2013-01-16 18:59:00,32.9,32.1,29.85,NW,321,0.0,3.0,97,0.00,,,0.31,Wunderground v.1.15,2013-01-16 23:59:00,
2013-01-16 19:04:00,32.9,32.1,29.85,NW,321,0.0,0.0,97,0.00,,,0.31,Wunderground v.1.15,2013-01-17 00:04:00,
2013-01-16 19:09:00,32.8,32.0,29.85,NW,321,0.0,1.0,97,0.00,,,0.31,Wunderground v.1.15,2013-01-17 00:09:00,
2013-01-16 19:14:00,32.8,32.0,29.85,NW,321,0.0,1.0,97,0.00,,,0.31,Wunderground v.1.15,2013-01-17 00:14:00,
2013-01-16 19:19:00,32.8,32.0,29.85,NW,321,1.0,1.0,97,0.00,,,0.31,Wunderground v.1.15,2013-01-17 00:19:00,
2013-01-16 19:24:00,32.8,32.0,29.85,NW,321,0.0,1.0,97,0.00,,,0.31,Wunderground v.1.15,2013-01-17 00:24:00,
2013-01-16 19:29:00,32.8,32.0,29.84,NW,321,0.0,0.0,97,0.00,,,0.31,Wunderground v.1.15,2013-01-17 00:29:00,
2013-01-16 19:35:00,32.8,32.0,29.84,NW,321,0.0,1.0,97,0.00,,,0.31,Wunderground v.1.15,2013-01-17 00:35:00,
2013-01-16 19:40:00,32.8,32.0,29.84,NW,321,0.0,0.0,97,0.00,,,0.31,Wunderground v.1.15,2013-01-17 00:40:00,
2013-01-16 19:45:00,32.8,32.0,29.84,NW,321,0.0,0.0,97,0.00,,,0.31,Wunderground v.1.15,2013-01-17 00:45:00,
2013-01-16 19:50:00,32.8,32.0,29.83,NW,321,0.0,0.0,97,0.00,,,0.31,Wunderground v.1.15,2013-01-17 00:50:00,
2013-01-16 19:55:00,32.7,31.9,29.83,NW,321,0.0,0.0,97,0.00,,,0.31,Wunderground v.1.15,2013-01-17 00:55:00,
2013-01-16 20:00:00,32.7,31.9,29.83,NW,321,0.0,0.0,97,0.00,,,0.31,Wunderground v.1.15,2013-01-17 01:00:00,
2013-01-16 20:05:00,32.7,31.9,29.83,NW,321,0.0,0.0,97,0.00,,,0.31,Wunderground v.1.15,2013-01-17 01:05:00,
2013-01-16 20:10:00,32.7,31.9,29.84,NW,321,0.0,0.0,97,0.00,,,0.31,Wunderground v.1.15,2013-01-17 01:10:00,
2013-01-16 20:15:00,32.7,31.9,29.84,NW,321,0.0,0.0,97,0.00,,,0.31,Wunderground v.1.15,2013-01-17 01:15:00,
2013-01-16 20:20:00,32.7,31.9,29.84,NW,321,0.0,0.0,97,0.00,,,0.32,Wunderground v.1.15,2013-01-17 01:20:00,
2013-01-16 20:25:00,32.6,31.8,29.84,NW,321,0.0,0.0,97,0.00,,,0.32,Wunderground v.1.15,2013-01-17 01:25:00,
2013-01-16 20:30:00,32.6,31.8,29.84,NW,321,0.0,0.0,97,0.00,,,0.32,Wunderground v.1.15,2013-01-17 01:30:00,
2013-01-16 20:35:00,32.6,31.8,29.85,NW,321,0.0,0.0,97,0.00,,,0.32,Wunderground v.1.15,2013-01-17 01:35:00,
2013-01-16 20:40:00,32.6,31.8,29.84,NW,321,0.0,0.0,97,0.00,,,0.32,Wunderground v.1.15,2013-01-17 01:40:00,
2013-01-16 20:45:00,32.6,31.8,29.85,NW,321,1.0,2.0,97,0.00,,,0.32,Wunderground v.1.15,2013-01-17 01:45:00,
2013-01-16 20:50:00,32.6,31.8,29.85,NW,321,0.0,0.0,97,0.00,,,0.32,Wunderground v.1.15,2013-01-17 01:50:00,
2013-01-16 20:55:00,32.6,31.8,29.85,NW,321,0.0,2.0,97,0.00,,,0.32,Wunderground v.1.15,2013-01-17 01:55:00,
2013-01-16 21:00:00,32.6,31.8,29.85,NW,321,0.0,0.0,97,0.00,,,0.32,Wunderground v.1.15,2013-01-17 02:00:00,
2013-01-16 21:05:00,32.7,31.9,29.85,NW,321,1.0,1.0,97,0.00,,,0.32,Wunderground v.1.15,2013-01-17 02:05:00,
2013-01-16 21:10:00,32.6,31.8,29.85,NW,321,0.0,0.0,97,0.00,,,0.32,Wunderground v.1.15,2013-01-17 02:10:00,
2013-01-16 21:15:00,32.7,31.9,29.85,NW,321,0.0,0.0,97,0.00,,,0.32,Wunderground v.1.15,2013-01-17 02:15:00,
2013-01-16 21:20:00,32.6,31.8,29.85,NW,321,0.0,0.0,97,0.00,,,0.32,Wunderground v.1.15,2013-01-17 02:20:00,
2013-01-16 21:25:00,32.6,31.8,29.85,NW,321,0.0,0.0,97,0.00,,,0.32,Wunderground v.1.15,2013-01-17 02:25:00,
2013-01-16 21:30:00,32.6,31.8,29.85,NW,321,0.0,0.0,97,0.00,,,0.32,Wunderground v.1.15,2013-01-17 02:30:00,
2013-01-16 21:36:00,32.6,31.8,29.86,NW,321,0.0,1.0,97,0.00,,,0.32,Wunderground v.1.15,2013-01-17 02:36:00,
2013-01-16 21:41:00,32.6,31.8,29.86,NW,321,0.0,0.0,97,0.00,,,0.32,Wunderground v.1.15,2013-01-17 02:41:00,
2013-01-16 21:46:00,32.6,31.8,29.85,NW,321,0.0,0.0,97,0.00,,,0.32,Wunderground v.1.15,2013-01-17 02:46:00,
2013-01-16 21:51:00,32.6,31.8,29.85,NW,321,0.0,0.0,97,0.00,,,0.32,Wunderground v.1.15,2013-01-17 02:51:00,
2013-01-16 21:56:00,32.7,31.9,29.85,NW,321,0.0,0.0,97,0.00,,,0.32,Wunderground v.1.15,2013-01-17 02:56:00,
2013-01-16 22:01:00,32.7,31.9,29.85,NW,321,0.0,0.0,97,0.00,,,0.32,Wunderground v.1.15,2013-01-17 03:01:00,
2013-01-16 22:06:00,32.7,31.9,29.85,NW,321,0.0,0.0,97,0.00,,,0.32,Wunderground v.1.15,2013-01-17 03:06:00,
2013-01-16 22:11:00,32.7,31.9,29.84,NW,321,0.0,0.0,97,0.00,,,0.32,Wunderground v.1.15,2013-01-17 03:11:00,
2013-01-16 22:16:00,32.7,31.9,29.85,NW,321,0.0,0.0,97,0.00,,,0.32,Wunderground v.1.15,2013-01-17 03:16:00,
2013-01-16 22:21:00,32.7,31.9,29.85,NW,320,0.0,1.0,97,0.00,,,0.32,Wunderground v.1.15,2013-01-17 03:21:00,
2013-01-16 22:26:00,32.8,32.0,29.85,NW,320,0.0,1.0,97,0.00,,,0.32,Wunderground v.1.15,2013-01-17 03:26:00,
2013-01-16 22:31:00,32.9,32.1,29.84,NW,320,0.0,1.0,97,0.00,,,0.32,Wunderground v.1.15,2013-01-17 03:31:00,
2013-01-16 22:36:00,33.0,32.2,29.85,NW,320,0.0,1.0,97,0.00,,,0.32,Wunderground v.1.15,2013-01-17 03:36:00,
2013-01-16 22:41:00,33.2,32.4,29.85,NW,320,0.0,1.0,97,0.00,,,0.32,Wunderground v.1.15,2013-01-17 03:41:00,
2013-01-16 22:46:00,33.4,32.6,29.86,West,273,0.0,4.0,97,0.00,,,0.32,Wunderground v.1.15,2013-01-17 03:46:00,
2013-01-16 22:51:00,33.5,33.0,29.85,West,273,0.0,0.0,98,0.00,,,0.32,Wunderground v.1.15,2013-01-17 03:51:00,
2013-01-16 22:56:00,33.6,32.8,29.85,West,273,0.0,0.0,97,0.00,,,0.32,Wunderground v.1.15,2013-01-17 03:56:00,
2013-01-16 23:02:00,33.7,32.9,29.85,SSW,193,0.0,0.0,97,0.00,,,0.32,Wunderground v.1.15,2013-01-17 04:02:00,
2013-01-16 23:07:00,33.7,32.9,29.85,SSW,193,1.0,1.0,97,0.00,,,0.32,Wunderground v.1.15,2013-01-17 04:07:00,
2013-01-16 23:12:00,33.8,33.0,29.85,SSW,193,0.0,0.0,97,0.00,,,0.32,Wunderground v.1.15,2013-01-17 04:12:00,
2013-01-16 23:17:00,33.7,32.9,29.84,SSE,157,1.0,1.0,97,0.00,,,0.32,Wunderground v.1.15,2013-01-17 04:17:00,
2013-01-16 23:22:00,33.8,33.0,29.85,SSE,157,0.0,0.0,97,0.00,,,0.32,Wunderground v.1.15,2013-01-17 04:22:00,
2013-01-16 23:27:00,33.9,33.1,29.85,SSW,202,0.0,3.0,97,0.00,,,0.32,Wunderground v.1.15,2013-01-17 04:27:00,
2013-01-16 23:32:00,33.9,33.1,29.86,SSW,202,0.0,0.0,97,0.00,,,0.32,Wunderground v.1.15,2013-01-17 04:32:00,
2013-01-16 23:37:00,33.9,33.1,29.86,SSW,202,0.0,0.0,97,0.00,,,0.32,Wunderground v.1.15,2013-01-17 04:37:00,
2013-01-16 23:42:00,33.9,33.1,29.86,SSW,202,0.0,0.0,97,0.00,,,0.33,Wunderground v.1.15,2013-01-17 04:42:00,
2013-01-16 23:47:00,33.9,33.1,29.86,SSW,202,0.0,0.0,97,0.00,,,0.33,Wunderground v.1.15,2013-01-17 04:47:00,
2013-01-16 23:52:00,33.9,33.1,29.86,SW,215,0.0,3.0,97,0.00,,,0.33,Wunderground v.1.15,2013-01-17 04:52:00,
2013-01-16 23:57:00,33.9,33.1,29.86,SSW,205,3.0,3.0,97,0.00,,,0.33,Wunderground v.1.15,2013-01-17 04:57:00,